X

Important NEWS



New Hub Active

Miami is our new hub! Old members can request transfer via hr@dlxairways.net

Thank you very much and have nice flight.


Deluxe Airways.

X

Tours



Hello again, we created one nice test tour for all pilots to attend. also this is ment to be testing of our tour system

Available Tours

If you find some issues please inform us.

Thank you very much and have nice flight.


Deluxe Airways.

 METAR AND TAF INFORMATION
ArrayMETAR FOR GCXO
15216989 3 GCXO 192100Z 30014KT 9999 FEW015 17/16 Q1019 NOSIG GCXO 2019-10-19T21:00:00Z 28.48 -16.35 17.0 16.0 300 14 6.21 30.088583 TRUE VFR METAR 632.0 GCXO 192030Z 29013KT 9999 FEW003 SCT018 17/16 Q1019 NOSIG GCXO 2019-10-19T20:30:00Z 28.48 -16.35 17.0 16.0 290 13 6.21 30.088583 TRUE VFR METAR 632.0 GCXO 192000Z 30015KT 9999 FEW003 SCT018 17/16 Q1018 NOSIG GCXO 2019-10-19T20:00:00Z 28.48 -16.35 17.0 16.0 300 15 6.21 30.059055 TRUE VFR METAR 632.0 GCXO 191930Z 30016KT 9999 SCT018 17/16 Q1018 NOSIG GCXO 2019-10-19T19:30:00Z 28.48 -16.35 17.0 16.0 300 16 6.21 30.059055 TRUE VFR METAR 632.0

 AIRPORT MAP

 RUNWAY INFORMATION
Runway 12 Runway length 11155 ft Runway width 148 ft
Runway elevation 2060 ft Runway displaced threshold 0 ft Runway heading 111
Runway 30 Runway length 11155 ft Runway width 148 ft
Runway elevation 2002 ft Runway displaced threshold 0 ft Runway heading 291

 AIRPORT FREQUENCIES
Type APP Name APP Frequency 119.7 MHZ
Type ATIS Name ATIS Frequency 118.575 MHZ
Type GND Name GND Frequency 121.7 MHZ
Type TWR Name TWR Frequency 118.7 MHZ

 AIRPORT NEAR NAVIGATION AIDS
Type VOR-DME Name Tenerife Norte Frequency 117700 KHZ
Type NDB Name Tenerife Norte Frequency 410 KHZ



Powered by Virtual Airlines Manager [v2.6.2]

Template code change by DeluxeAir